Wind_Speed
7 7 7 7 7 7 7 8 8 9 9 9 10 10 9 9 9 9 9 9 9 9 9 9 11 11 11 11 11 11 11 11 10 10 9 8 8 7 6 6 5 5 5
7 7 7 6 6 6 7 8 8 9 9 9 10 10 10 10 10 9 9 9 8 8 9 10 12 11 11 11 11 10 10 10 10 9 8 8 7 7 7 6 5 5 5
7 7 6 6 6 6 6 7 8 8 9 9 9 9 9 10 10 9 9 8 8 8 9 10 11 11 11 11 10 9 9 8 9 8 8 7 7 7 6 5 5 5 4
7 6 6 6 6 6 6 7 8 9 9 9 9 9 9 9 9 8 8 8 8 8 9 10 10 10 10 9 9 9 8 8 8 7 7 7 7 6 6 5 5 4 4
7 6 6 5 5 6 6 7 8 9 9 9 9 9 9 9 9 9 9 9 8 8 9 10 10 9 9 9 9 9 8 8 8 7 7 7 6 6 5 5 4 4 3
7 6 5 5 5 6 6 7 7 8 8 8 8 8 9 9 9 9 9 9 9 9 9 9 9 9 9 8 8 8 8 7 7 7 7 6 6 5 5 5 4 4 3
7 6 5 5 5 6 6 7 7 7 8 8 8 8 8 9 9 9 9 9 9 9 9 9 8 8 8 8 8 8 8 7 7 7 6 5 5 4 4 4 4 3 3
8 7 6 6 5 6 6 6 7 7 7 8 8 8 8 9 9 9 8 8 8 8 8 8 8 8 8 7 7 7 7 7 6 6 5 4 4 4 3 3 3 3 3
8 7 6 6 6 6 6 6 7 7 6 7 7 8 8 8 8 8 8 8 8 8 8 7 7 7 7 7 7 7 7 6 5 5 4 4 4 3 3 3 3 3 3
8 7 7 6 6 5 5 6 6 6 6 6 7 7 7 7 7 7 7 8 7 7 7 7 6 6 6 6 6 7 6 6 5 5 4 4 3 3 3 3 3 3 2
8 8 7 7 6 5 5 5 5 5 5 6 6 6 6 6 6 6 7 7 7 6 6 6 6 6 5 5 5 5 5 5 5 4 4 3 3 3 3 3 2 2 2
8 8 7 7 6 6 5 5 5 5 5 5 6 6 6 6 6 6 6 7 6 6 6 6 5 5 5 5 4 4 4 4 4 4 3 3 3 3 3 2 2 2 1
9 8 8 7 7 6 6 5 5 5 5 5 5 5 5 5 5 5 6 6 6 5 5 5 5 5 4 3 3 3 3 3 3 3 2 2 3 2 2 2 2 1 1
9 8 8 8 7 6 6 6 5 5 5 5 5 4 5 5 4 5 5 5 5 5 5 4 4 4 3 3 3 2 2 2 2 2 2 2 3 3 2 2 2 2 2
9 9 9 8 8 8 6 6 5 5 5 4 4 4 4 4 4 4 4 3 3 4 4 4 4 3 3 2 2 2 2 2 2 2 2 3 3 3 3 3 3 4 4
10 9 9 9 9 9 7 5 5 5 4 4 4 4 4 3 4 4 3 2 3 3 3 4 4 3 3 2 2 2 2 2 2 3 3 3 3 4 4 4 4 5 5
11 10 10 9 9 9 9 8 7 6 5 4 4 4 3 3 3 3 2 2 2 3 3 3 3 3 3 2 2 3 3 3 3 3 4 4 4 4 5 5 5 6 6
11 11 10 10 9 9 9 9 8 7 6 5 4 4 3 2 1 1 1 1 3 3 3 3 3 3 3 3 3 3 3 4 4 4 4 5 5 6 6 7 7 7 7
12 11 11 10 10 9 10 10 9 8 7 6 5 4 3 2 2 1 1 1 2 3 3 3 3 3 3 3 4 4 5 5 4 5 5 6 6 7 7 7 8 9 9
12 11 11 11 10 9 9 10 10 9 8 7 6 5 4 3 2 1 0 0 1 2 3 3 3 3 4 4 5 5 6 5 6 6 7 8 8 8 8 9 9 10 10
12 12 11 11 11 10 10 10 9 9 9 8 7 5 5 4 3 3 2 1 0 2 2 3 3 4 4 4 5 6 6 6 7 7 8 9 9 9 10 11 11 11 12
13 12 12 11 11 11 10 10 9 9 8 8 7 5 4 4 4 4 3 2 1 1 2 3 3 4 5 5 6 6 7 7 7 8 9 9 10 11 11 12 12 13 13
13 12 11 11 11 11 11 10 10 10 9 8 7 7 6 5 4 4 3 3 2 2 3 4 4 5 5 6 6 7 8 8 9 9 9 10 10 10 11 12 13 14 14
13 12 12 12 11 11 10 10 10 10 10 9 8 8 7 6 6 4 4 4 4 4 4 4 5 6 6 7 7 8 9 10 10 11 11 11 11 12 12 13 13 14 15
12 12 12 12 11 11 11 11 10 10 10 9 9 9 9 8 7 6 6 6 5 5 5 5 6 7 7 8 8 9 10 10 11 11 12 13 13 13 13 13 14 15 15
12 12 12 11 11 11 12 11 11 11 10 10 10 9 9 9 9 8 7 7 6 6 6 6 7 8 8 9 9 10 10 11 11 12 13 14 14 15 15 15 15 16 16
Wind_Direction
76 86 87 87 91 94 98 99 99 103 106 108 108 107 103 101 104 105 106 106 106 107 108 113 122 122 120 123 124 127 127 127 126 124 124 127 129 128 122 120 123 125 122
78 85 86 94 96 98 103 105 105 103 105 108 107 104 103 103 105 107 107 106 106 103 110 116 119 120 121 122 123 122 123 125 128 126 124 120 120 117 115 114 110 112 115
77 80 86 96 99 104 111 112 111 108 105 106 106 106 106 107 106 107 111 112 106 104 108 111 113 119 119 120 118 118 121 124 124 123 119 115 114 111 111 112 109 112 115
76 81 91 103 106 109 114 114 114 110 108 107 107 109 110 110 108 107 109 112 110 106 106 108 108 117 116 114 117 120 121 121 122 118 109 109 109 108 110 111 109 115 119
79 82 91 102 103 108 114 117 116 113 111 109 110 112 113 113 112 109 109 112 112 108 107 104 103 109 111 107 113 119 121 122 121 117 110 111 111 110 110 108 102 111 118
78 81 85 93 97 104 111 117 120 118 115 112 112 114 118 119 117 114 113 113 113 113 109 104 104 106 106 106 112 117 116 121 122 119 115 115 118 119 110 101 96 103 108
70 78 81 85 91 98 107 114 119 120 118 118 119 119 120 121 119 116 112 114 115 114 112 108 108 107 105 111 116 117 115 116 116 117 115 120 127 130 122 112 111 111 105
65 71 77 84 89 97 105 111 116 120 118 118 122 122 124 125 123 119 116 117 119 117 118 115 109 110 108 109 115 116 115 114 114 121 127 129 133 136 139 135 131 124 116
63 66 73 82 88 95 102 109 113 117 116 120 125 127 125 125 126 125 123 123 124 123 122 121 116 113 109 111 111 114 116 118 118 123 125 128 133 139 142 136 136 134 126
63 66 70 76 84 93 100 108 112 113 116 121 125 128 129 129 128 128 124 123 125 124 122 121 121 119 115 113 117 119 121 120 118 120 123 129 138 145 145 141 129 129 132
61 64 68 73 78 82 94 106 110 112 112 121 127 132 134 133 133 132 128 126 124 123 122 122 125 127 122 119 122 124 125 124 126 128 126 126 131 131 133 133 137 135 137
59 61 63 69 74 77 86 96 102 110 111 115 124 130 134 134 134 136 134 132 129 128 129 130 131 132 129 126 127 131 134 133 130 129 133 139 142 140 139 147 156 154 145
57 59 61 65 70 74 81 93 100 104 110 113 123 130 134 135 136 135 136 132 129 130 133 136 138 137 137 140 145 143 149 150 145 144 153 158 164 167 169 176 190 190 208
55 57 59 63 67 74 79 88 92 100 110 110 114 127 132 133 136 139 140 134 130 131 137 140 145 148 146 152 158 159 159 166 174 187 199 198 200 205 212 227 235 244 255
53 55 59 61 63 66 79 85 86 95 101 103 109 121 129 132 137 142 145 143 146 147 148 151 155 158 154 160 167 180 185 191 202 207 218 217 222 229 236 251 257 259 265
55 55 56 59 60 61 68 76 75 84 98 102 115 123 133 139 145 147 151 154 168 180 173 168 168 175 175 184 189 206 215 215 226 230 233 232 231 240 249 265 270 271 271
55 55 54 54 57 60 61 68 67 68 82 93 108 122 127 135 147 152 159 185 195 202 194 181 183 186 198 211 218 221 232 239 245 245 246 247 247 250 258 268 275 279 277
52 54 52 55 59 62 62 61 63 67 66 73 91 102 105 100 124 159 166 203 198 198 198 201 205 217 233 239 236 240 252 255 259 260 255 257 261 262 266 269 271 276 277
51 53 53 54 58 61 61 59 58 58 59 65 78 85 88 89 88 144 196 190 205 207 209 221 220 230 238 238 247 254 260 265 267 268 269 271 271 271 272 273 275 277 278
49 52 52 54 57 58 59 57 57 55 53 59 66 69 68 68 59 44 127 192 203 206 217 239 250 249 253 254 257 261 264 269 272 273 275 275 275 276 276 277 282 283 279
48 50 50 52 53 55 56 55 54 52 49 53 58 61 59 52 46 51 46 23 246 239 253 261 259 256 257 260 266 266 269 273 275 277 280 278 276 278 279 279 282 280 279
44 46 48 50 52 53 53 53 51 50 48 50 51 54 55 49 44 41 44 38 21 274 267 281 276 264 264 267 270 270 274 277 277 278 278 279 280 279 279 280 282 281 278
41 44 47 49 51 50 50 52 52 49 48 48 48 46 44 43 33 26 22 12 349 313 286 281 284 283 279 275 276 275 275 279 279 281 281 283 285 284 282 283 284 283 281
40 44 47 47 47 45 46 48 50 49 48 46 44 42 39 31 24 15 360 347 333 315 301 289 284 288 289 285 280 277 276 277 280 283 283 285 285 286 287 288 288 287 286
36 41 44 44 43 44 45 44 43 42 39 37 34 30 23 22 14 3 350 338 329 317 304 294 285 285 287 289 287 283 282 279 278 279 282 285 286 287 288 289 291 291 290
32 37 40 40 41 44 43 41 39 36 34 32 26 19 14 10 2 351 343 336 328 317 303 292 288 284 285 287 287 286 283 283 282 283 284 283 284 285 286 288 290 292 293
Height
5881 5880 5879 5879 5879 5879 5878 5878 5878 5877 5877 5877 5876 5876 5876 5876 5875 5876 5876 5877 5877 5878 5878 5879 5879 5880 5881 5882 5882 5883 5885 5885 5886 5887 5888 5889 5889 5890 5890 5891 5891 5891 5892
5881 5881 5880 5880 5880 5880 5879 5879 5879 5878 5878 5878 5877 5877 5877 5877 5877 5877 5878 5878 5879 5879 5880 5880 5881 5881 5882 5883 5884 5885 5886 5887 5888 5888 5889 5890 5890 5891 5891 5892 5892 5892 5893
5882 5882 5881 5881 5881 5881 5881 5880 5880 5879 5879 5879 5879 5878 5878 5878 5878 5879 5879 5880 5880 5881 5881 5882 5882 5883 5884 5884 5885 5886 5887 5888 5889 5889 5890 5891 5891 5891 5892 5892 5893 5893 5894
5883 5883 5882 5882 5882 5882 5881 5881 5881 5880 5880 5880 5880 5880 5880 5880 5880 5880 5881 5881 5881 5882 5883 5883 5884 5884 5885 5886 5887 5887 5888 5889 5890 5891 5891 5892 5892 5892 5893 5894 5894 5894 5895
5884 5884 5883 5883 5883 5883 5883 5882 5882 5882 5882 5881 5881 5881 5881 5882 5882 5882 5882 5883 5883 5883 5884 5884 5885 5886 5886 5887 5888 5889 5889 5890 5891 5891 5892 5893 5893 5894 5894 5894 5895 5895 5895
5885 5885 5884 5884 5884 5884 5884 5883 5883 5883 5883 5883 5882 5883 5883 5883 5883 5884 5884 5885 5885 5885 5886 5886 5887 5887 5888 5888 5889 5889 5890 5891 5892 5892 5893 5894 5894 5895 5895 5895 5895 5896 5896
5887 5886 5886 5885 5885 5885 5884 5884 5884 5884 5884 5884 5883 5884 5884 5884 5885 5885 5886 5886 5886 5887 5887 5888 5888 5888 5889 5890 5890 5890 5891 5892 5893 5893 5894 5895 5895 5896 5896 5896 5896 5897 5897
5888 5888 5887 5887 5886 5886 5886 5885 5885 5885 5885 5885 5885 5885 5885 5885 5886 5886 5887 5888 5888 5888 5889 5889 5889 5890 5890 5891 5891 5892 5892 5893 5894 5894 5895 5896 5896 5896 5897 5897 5897 5897 5897
5890 5889 5888 5888 5887 5887 5886 5886 5886 5886 5886 5886 5886 5886 5886 5887 5887 5888 5888 5888 5889 5889 5890 5891 5891 5891 5891 5892 5892 5893 5894 5894 5895 5895 5896 5896 5896 5897 5897 5897 5897 5897 5897
5892 5891 5890 5889 5888 5888 5887 5887 5887 5887 5887 5887 5886 5887 5887 5887 5888 5888 5889 5889 5890 5891 5891 5892 5892 5892 5893 5893 5893 5894 5895 5895 5896 5896 5896 5896 5897 5897 5897 5897 5898 5898 5898
5894 5892 5891 5890 5889 5889 5888 5888 5888 5888 5888 5887 5887 5887 5888 5888 5889 5889 5890 5890 5891 5892 5892 5893 5893 5893 5894 5894 5894 5895 5895 5896 5896 5896 5897 5897 5897 5898 5898 5898 5898 5898 5898
5895 5894 5893 5892 5891 5890 5889 5889 5889 5888 5888 5888 5888 5888 5889 5889 5889 5890 5890 5891 5892 5892 5893 5893 5894 5894 5894 5895 5895 5895 5896 5896 5896 5897 5897 5897 5898 5898 5898 5898 5898 5898 5898
5897 5896 5894 5893 5892 5891 5890 5890 5890 5889 5889 5889 5889 5889 5889 5890 5890 5891 5891 5892 5892 5893 5893 5894 5894 5895 5895 5895 5896 5896 5896 5896 5897 5897 5897 5898 5898 5898 5898 5898 5898 5898 5898
5899 5897 5896 5895 5893 5892 5892 5891 5891 5890 5890 5890 5890 5890 5890 5890 5891 5891 5892 5892 5893 5893 5893 5894 5894 5895 5895 5896 5896 5896 5897 5897 5897 5897 5897 5897 5898 5898 5898 5898 5898 5898 5898
5900 5899 5897 5896 5895 5893 5893 5892 5892 5891 5891 5891 5891 5891 5891 5891 5891 5892 5892 5893 5893 5893 5894 5894 5895 5895 5896 5896 5896 5897 5897 5897 5897 5897 5897 5897 5897 5897 5897 5897 5897 5897 5897
5902 5900 5899 5897 5896 5895 5894 5893 5893 5892 5892 5891 5891 5891 5892 5892 5892 5892 5893 5893 5893 5894 5894 5895 5895 5895 5896 5896 5896 5896 5896 5897 5897 5897 5897 5897 5897 5897 5897 5897 5897 5896 5896
5903 5902 5901 5899 5898 5897 5896 5895 5894 5893 5892 5892 5892 5892 5892 5893 5893 5893 5893 5893 5894 5894 5894 5895 5895 5895 5896 5896 5896 5896 5896 5896 5896 5896 5896 5896 5896 5896 5896 5896 5895 5895 5895
5905 5903 5902 5901 5899 5898 5897 5896 5895 5895 5894 5893 5893 5893 5893 5893 5893 5893 5894 5894 5894 5894 5894 5895 5895 5895 5896 5895 5896 5896 5896 5896 5895 5895 5895 5895 5895 5895 5895 5894 5894 5894 5893
5906 5905 5904 5903 5901 5900 5899 5898 5897 5896 5895 5894 5894 5894 5894 5894 5893 5893 5893 5893 5893 5894 5894 5895 5895 5895 5895 5895 5895 5895 5895 5895 5895 5895 5895 5894 5894 5894 5893 5893 5892 5892 5891
5908 5907 5906 5904 5903 5902 5901 5900 5898 5898 5897 5896 5895 5895 5894 5894 5894 5893 5893 5893 5893 5894 5894 5895 5895 5894 5894 5894 5894 5894 5894 5894 5894 5893 5893 5893 5892 5892 5892 5891 5891 5890 5889
5911 5909 5908 5906 5905 5903 5902 5901 5900 5899 5898 5897 5896 5895 5895 5895 5894 5894 5894 5894 5894 5894 5894 5894 5894 5893 5893 5893 5894 5893 5893 5893 5892 5892 5891 5891 5890 5890 5890 5889 5888 5887 5887
5913 5911 5910 5908 5907 5905 5904 5902 5901 5900 5899 5898 5897 5897 5896 5896 5895 5894 5894 5894 5893 5893 5893 5893 5893 5892 5892 5892 5892 5892 5891 5892 5890 5890 5890 5889 5888 5888 5887 5886 5885 5884 5883
5915 5913 5912 5910 5908 5907 5905 5904 5903 5901 5900 5899 5899 5898 5897 5896 5895 5895 5894 5893 5893 5893 5892 5892 5891 5891 5891 5890 5890 5890 5890 5889 5888 5888 5887 5887 5886 5885 5885 5884 5882 5881 5880
5917 5915 5913 5912 5910 5909 5907 5906 5904 5903 5902 5901 5900 5899 5898 5897 5896 5895 5894 5893 5893 5892 5891 5891 5890 5890 5889 5889 5888 5888 5887 5887 5886 5886 5885 5884 5883 5883 5882 5881 5879 5878 5877
5919 5917 5915 5914 5912 5911 5909 5907 5906 5904 5903 5902 5900 5900 5898 5897 5896 5895 5893 5892 5891 5891 5890 5889 5889 5888 5887 5887 5886 5885 5885 5884 5883 5883 5882 5881 5880 5880 5879 5878 5876 5875 5874
5920 5918 5917 5915 5914 5912 5910 5909 5907 5905 5904 5902 5901 5900 5898 5897 5895 5894 5892 5891 5890 5889 5888 5887 5886 5886 5885 5884 5883 5883 5882 5881 5880 5880 5879 5878 5877 5876 5875 5874 5873 5871 5870